Deer Park, WA
on Monday, February 11, 2013

Monday
Previous Day Next Day
Daily Summary
 ActualAverageRecord
Temperature
Mean Temperature °F 30°F  
Max Temperature 37°F 38°F 50°F (2005)
Min Temperature 22°F 21°F 3°F (1999)
Degree Days
Heating Degree Days 35 35  
Month to date heating degree days 381 393  
Since 1 July heating degree days 4489 4789  
Cooling Degree Days 0 0  
Month to date cooling degree days 0 0  
Year to date cooling degree days 0 0  
Moisture
Dew Point 27°F   
Average Humidity 85    
Maximum Humidity 100    
Minimum Humidity 70    
Precipitation
Precipitation 0.00 in 0.06 in 0.27 in (2007)
Month to date precipitation 0.03 0.73  
Year to date precipitation 1.53 3.36  
Wind
Wind Speed 1 mph   
Max Wind Speed 5 mph   
Max Gust Speed 5 mph   
Visibility 10 miles   
Events     

Key: T is trace of precipitation, MM is missing value
Source: NWS Daily Summary
Time(PST)TemperatureDew PointHumidity Pressure Visibility Wind DirectionWind SpeedGust SpeedPrecipitationEvents Conditions
12:01 AM 21.2°F 21.2°F 100% 30.19 in 5.0 miles Calm Calm - N/A   Overcast
12:53 AM 26.1°F 25.0°F 96% 30.25 in 9.0 miles Calm Calm - N/A   Overcast
1:53 AM 26.1°F 24.1°F 92% 30.26 in 8.0 miles WNW 3.5 mph - N/A   Overcast
2:53 AM 27.0°F 26.1°F 96% 30.25 in 10.0 miles NW 3.5 mph - N/A   Overcast
3:53 AM 27.0°F 26.1°F 96% 30.25 in 9.0 miles WNW 3.5 mph - N/A   Overcast
4:53 AM 28.0°F 26.1°F 92% 30.24 in 10.0 miles Calm Calm - N/A   Overcast
5:53 AM 28.0°F 26.1°F 92% 30.24 in 10.0 miles Calm Calm - N/A   Overcast
6:53 AM 28.0°F 26.1°F 92% 30.24 in 10.0 miles Calm Calm - N/A   Overcast
7:53 AM 28.9°F 26.1°F 89% 30.25 in 10.0 miles Calm Calm - N/A   Overcast
8:53 AM 30.0°F 27.0°F 88% 30.26 in 10.0 miles Calm Calm - N/A   Overcast
9:53 AM 33.1°F 27.0°F 78% 30.27 in 10.0 miles NE 4.6 mph - N/A   Overcast
10:53 AM 33.1°F 28.0°F 82% 30.27 in 10.0 miles Calm Calm - N/A   Overcast
11:53 AM 35.1°F 28.0°F 76% 30.26 in 10.0 miles Calm Calm - N/A   Overcast
12:53 PM 34.0°F 28.0°F 79% 30.24 in 10.0 miles Calm Calm - N/A   Overcast
1:53 PM 37.0°F 28.0°F 70% 30.23 in 10.0 miles Calm Calm - N/A   Overcast
2:53 PM 37.0°F 28.0°F 70% 30.23 in 10.0 miles Calm Calm - N/A   Overcast
3:53 PM 36.0°F 28.9°F 76% 30.24 in 10.0 miles Calm Calm - N/A   Overcast
4:53 PM 36.0°F 28.0°F 73% 30.23 in 10.0 miles Calm Calm - N/A   Overcast
5:53 PM 34.0°F 28.9°F 82% 30.25 in 10.0 miles Calm Calm - N/A   Overcast
6:53 PM 33.1°F 30.0°F 89% 30.25 in 10.0 miles Calm Calm - N/A   Overcast
7:53 PM 33.1°F 30.0°F 89% 30.25 in 10.0 miles Calm Calm - N/A   Overcast
8:53 PM 33.1°F 28.9°F 85% 30.25 in 10.0 miles Calm Calm - N/A   Overcast
9:53 PM 33.1°F 28.9°F 85% 30.25 in 10.0 miles Calm Calm - N/A   Overcast
10:53 PM 33.1°F 30.0°F 89% 30.26 in 10.0 miles North 3.5 mph - N/A   Overcast
11:53 PM 33.1°F 30.0°F 89% 30.25 in 10.0 miles Calm Calm - N/A   Overcast
Moon Phase
Feb. 11 Feb. 17 Feb. 25 Mar. 04 Mar. 11
Sunrise:07:02 AM (PST) Moon Rise:07:17 AM (PST)2/11
Sunset:05:06 PM (PST) Moon Set:07:22 PM (PST)2/11

Copyright © 2014 The Weather Underground, Inc.